Location: *
(48.2928°S, 178.4104°E)
Time: 18:01:39
(UTC+00:00)

Daily predictions for brighter satellites

Satellite Brightness Start Highest point End
(mag) Time Altitude Azimuth Time Altitude Azimuth Time Altitude Azimuth
MOS 1 Rocket 3.9 12:03:47 10° S 12:09:06 60° WSW 12:11:42 28° NW
Cosmos 1340 3.4 12:10:21 33° WNW 12:11:17 40° WSW 12:14:44 10° S
BREEZE-M DEB (TANK) 3.9 12:10:51 10° W 12:14:20 79° S 12:26:12 10° E
Cosmos 1975 Rocket 3.3 12:09:55 10° S 12:14:22 65° ESE 12:16:04 36° NNE
ALOS 2 3.0 12:12:38 10° SSE 12:17:01 52° E 12:18:28 36° NNE
Cosmos 2084 4.3 12:18:23 33° NE 12:19:15 36° ENE 12:23:36 10° SE
Cosmos 1825 2.3 12:16:00 10° S 12:19:36 60° ESE 12:20:28 44° NE
ARIANE 5 R/B 3.5 12:18:10 10° S 12:22:21 42° WSW 12:24:23 26° WNW
Cosmos 1908 Rocket 4.2 12:22:22 31° NW 12:24:09 48° WSW 12:28:35 10° S
Meteor 2-10 Rocket 4.2 12:21:31 27° NW 12:24:40 56° WSW 12:30:30 10° S
CZ-2D R/B 2.8 12:22:50 19° NE 12:26:38 53° ESE 12:32:01 10° S
Cosmos 1025 Rocket 3.2 12:22:17 10° SSW 12:26:41 61° W 12:28:02 40° NNW
Cosmos 1934 Rocket 4.4 12:23:19 10° SSW 12:29:29 52° W 12:32:32 28° NNW
Cosmos 1315 Rocket 3.2 12:25:59 10° SSW 12:29:58 52° W 12:30:57 41° NW
Cosmos 1633 3.0 12:27:16 10° SSW 12:30:01 36° W 12:30:01 36° W
Cosmos 1538 Rocket 4.0 12:25:20 10° SSW 12:30:47 76° WNW 12:33:19 32° N
Cosmos 371 Rocket 3.4 12:29:28 33° NW 12:31:40 74° WSW 12:36:37 10° SSE
MSX 4.3 12:30:50 18° NE 12:35:01 57° ESE 12:40:42 10° S
SAR-Lupe-1 4.4 12:36:20 37° NE 12:37:34 63° ESE 12:41:14 10° S
Helios 1A Rocket 4.3 12:34:20 10° SE 12:37:47 27° E 12:39:07 22° NE
SL-27 R/B 4.0 12:38:32 20° ENE 12:38:45 20° ENE 12:41:08 10° SE
IDEFIX/ARIANE 42P 2.9 12:35:57 23° NNE 12:39:13 66° ESE 12:44:32 10° S
ATLAS CENTAUR R/B 3.9 12:40:30 10° W 12:40:42 10° WNW 12:40:42 10° WNW
Okean 2 Rocket 4.4 12:39:07 21° NE 12:41:11 32° E 12:45:09 10° SSE
ADEOS II 3.0 12:39:03 15° NE 12:43:14 46° ESE 12:48:19 10° S
Cosmos 990 Rocket 4.0 12:40:55 33° NNW 12:43:21 87° WSW 12:48:42 10° SSE
Cosmos 2082 Rocket 4.1 12:38:58 10° W 12:43:42 26° SW 12:48:30 10° S
USA 305 4.4 12:42:32 10° SW 12:44:03 16° S 12:45:27 10° SE
Cosmos 1300 Rocket 3.6 12:42:59 38° NNW 12:44:39 74° WSW 12:49:09 10° S
Meteor 1-4 Rocket 2.2 12:41:36 10° S 12:44:52 78° ESE 12:45:27 56° NNE
Cosmos 2219 Rocket 2.7 12:42:30 10° SSW 12:48:06 60° ESE 12:53:31 11° NE
Cosmos 2360 Rocket 2.2 12:42:37 10° SSW 12:48:20 76° WNW 12:51:36 26° NNE
USA 307 4.3 12:46:40 10° WSW 12:48:31 19° S 12:50:17 10° SE
Cosmos 921 Rocket 4.1 12:46:59 10° S 12:51:01 40° ESE 12:54:19 14° NE
SL-8 R/B 3.6 12:49:38 13° WNW 12:54:00 80° NNE 12:58:52 10° E
In-Cosmos 22 Rocket 4.3 12:48:43 10° S 12:54:36 84° ESE 12:58:04 25° NNE
Cosmos 1727 Rocket 4.1 12:51:05 27° N 12:54:39 77° E 13:01:02 10° SSE
Cosmos 1605 Rocket 4.3 12:48:44 10° SSW 12:54:44 54° W 12:57:53 28° NNW
Cosmos 2173 Rocket 4.3 12:49:52 10° S 12:56:00 62° ESE 13:00:35 18° NNE
Cosmos 1892 3.5 12:55:10 10° SSW 12:58:30 33° W 12:59:05 31° WNW
ARGOS Delta rocket 4.1 12:56:51 10° S 13:01:13 52° WSW 13:03:09 29° NW
Cosmos 2098 Rocket 4.5 13:00:22 16° W 13:01:39 20° WSW 13:04:32 10° SSW
Cosmos 372 Rocket 4.3 12:59:42 29° N 13:02:07 54° ENE 13:07:08 10° SSE
ALOS 4.1 12:59:09 10° ENE 13:03:06 27° ESE 13:07:05 10° S
AQUA 4.4 13:00:17 18° NE 13:03:46 57° ESE 13:08:30 10° S
Cosmos 1455 2.2 13:02:52 42° NW 13:03:52 62° W 13:07:32 10° S
Cosmos 1441 Rocket 4.0 13:04:48 28° NNE 13:06:19 43° E 13:09:59 10° SSE
USA 306 4.3 13:04:33 10° WSW 13:07:36 31° S 13:10:55 10° ESE
ATLAS 5 CENTAUR R/B 3.0 13:04:28 10° SW 13:10:30 50° SE 13:15:21 10° ENE
Cosmos 2322 Rocket 2.8 13:06:44 10° SW 13:11:56 38° WNW 13:14:09 27° NNW
Cosmos 1937 Rocket 3.6 13:10:03 29° N 13:12:40 65° ENE 13:17:50 10° SSE
GENESIS II 4.3 13:10:02 10° SW 13:13:40 66° SE 13:17:03 12° NE
ISS -2.6 13:11:52 10° WSW 13:15:12 46° S 13:18:31 10° E
Cosmos 1898 Rocket 3.5 13:15:10 29° NNW 13:18:00 86° WSW 13:23:25 10° SSE
USA 308 2.8 13:15:58 10° SW 13:18:09 42° SSE 13:20:45 10° E
Resurs 1-4 Rocket 2.3 13:17:55 27° N 13:20:41 58° W 13:25:57 10° SSW
BREEZE M DEB (TANK) 2.0 13:20:26 21° WSW 13:21:43 65° S 13:24:24 10° E
Cosmos 2151 Rocket 3.6 13:19:37 30° N 13:21:54 83° E 13:26:32 10° S
Cosmos 2100 Rocket 4.0 13:17:22 10° S 13:23:39 83° W 13:28:00 21° N
Cosmos 923 Rocket 4.1 13:19:57 10° SSW 13:25:10 59° WNW 13:28:13 24° N
FENGYUN 3A 3.9 13:20:28 14° NNE 13:25:11 69° ESE 13:30:38 10° S
USA 229 DEB 4.4 13:21:08 10° WSW 13:26:36 28° WNW 13:28:44 23° NW
USA 229 4.4 13:21:10 10° SW 13:26:40 29° WNW 13:28:49 23° NW
USA 215 3.2 13:23:13 10° NE 13:29:49 74° NW 13:36:29 10° WSW
Cosmos 2297 Rocket 4.1 13:31:03 10° NNE 13:35:10 21° E 13:39:17 10° SE
CZ-2C R/B 4.4 13:31:24 10° ENE 13:35:37 27° ESE 13:39:46 10° S
Cosmos 1725 Rocket 4.2 13:29:52 10° S 13:36:18 75° E 13:42:07 13° NNE
NPP 4.3 13:34:36 24° NNW 13:37:18 40° W 13:42:27 10° SSW
Cosmos 1459 Rocket 4.1 13:30:55 10° SSW 13:37:23 73° W 13:42:00 20° N
Cosmos 1802 Rocket 4.0 13:31:26 10° S 13:37:52 89° W 13:42:58 16° N
Cosmos 1680 Rocket 3.6 13:33:05 10° SSW 13:38:24 62° WNW 13:42:04 20° N
SL-16 R/B 3.9 13:37:38 10° WSW 13:40:51 15° W 13:42:22 14° WNW
NOSS 0 Rocket 4.5 13:38:46 10° SSW 13:44:59 62° SE 13:51:10 10° NE
COSMOS 2428 2.7 13:41:48 10° SSW 13:47:35 87° ESE 13:53:18 10° NNE
Cosmos 2333 Rocket 3.0 13:43:17 10° SW 13:48:20 33° WNW 13:51:07 22° NNW
Cosmos 1461 3.2 13:45:28 10° SW 13:49:42 72° SE 13:54:03 10° NE
ALOS 2 4.5 13:49:41 10° SSW 13:53:00 21° WSW 13:55:52 12° WNW
Cosmos 1825 4.4 13:52:49 10° WSW 13:53:42 11° W 13:54:25 10° W
Cosmos 2112 Rocket 4.3 13:48:46 10° SSW 13:54:01 54° WNW 13:57:59 17° N
Cosmos 1242 Rocket 2.7 13:58:08 10° SSW 14:01:20 46° W 14:02:45 27° NNW
Cosmos 2237 Rocket 3.2 13:55:50 10° SSW 14:01:27 50° SE 14:07:00 10° NE
CZ-2D R/B 3.4 14:04:08 18° NW 14:06:55 27° W 14:11:34 10° SW
Cosmos 2061 Rocket 4.0 14:01:49 10° S 14:08:08 83° W 14:14:23 10° N
Okean 1 Rocket 3.4 14:08:32 20° NNW 14:11:26 55° WSW 14:15:52 10° S
Helios 1A Rocket 4.1 14:08:55 10° S 14:12:21 29° WSW 14:14:46 16° WNW
SL-27 R/B 3.8 14:10:52 16° WNW 14:12:30 24° WSW 14:15:10 10° S
Cosmos 1892 Rocket 3.6 14:09:27 10° S 14:13:58 88° E 14:18:27 10° N
Cosmos 2322 4.0 14:11:24 10° SW 14:16:57 48° WNW 14:22:25 10° N
USA 32 4.2 14:14:04 12° N 14:19:00 75° E 14:24:20 10° S
USA 305 4.1 14:17:43 10° SW 14:19:10 17° SSE 14:20:32 10° ESE
Okean 2 Rocket 4.3 14:16:26 16° WNW 14:19:13 29° WSW 14:23:08 10° S
IDEFIX/ARIANE 42P 4.1 14:16:42 15° NW 14:19:14 20° W 14:23:06 10° SW
CZ-2C R/B 3.4 14:15:03 10° N 14:20:43 65° W 14:26:36 10° SSW
ADEOS II 3.2 14:19:56 17° NW 14:23:03 28° W 14:27:37 10° SW
Cosmos 2016 Rocket 4.4 14:17:25 10° SSW 14:23:38 51° W 14:29:09 13° NNW
PAYLOAD A 4.4 14:18:59 10° NNE 14:23:38 59° ESE 14:28:23 10° S
USA 307 3.7 14:22:16 10° SW 14:24:16 26° SSE 14:26:12 10° ESE
USA 281 4.1 14:19:19 10° NE 14:25:40 53° SE 14:32:05 10° SSW
Cosmos 2084 Rocket 4.0 14:23:16 10° SW 14:28:04 72° SE 14:32:49 10° NE
Cosmos 921 Rocket 4.3 14:25:42 10° SW 14:28:58 22° W 14:30:59 16° NW
Cosmos 1125 Rocket 4.3 14:24:54 10° N 14:29:55 46° ENE 14:34:58 10° SSE
IRIDIUM 104 4.5 14:25:31 10° S 14:30:46 62° W 14:35:43 11° NNW
Cosmos 2360 Rocket 4.1 14:29:04 10° WSW 14:31:19 12° W 14:33:19 10° WNW
Cosmos 1346 Rocket 3.3 14:28:37 17° NW 14:31:20 45° WSW 14:35:10 10° S
Cosmos 2227 Rocket 3.6 14:26:39 10° NNE 14:31:37 32° ENE 14:36:37 10° SE
Cosmos 2219 Rocket 3.3 14:27:09 10° SW 14:31:38 25° WNW 14:35:09 14° NNW
BREEZE-M DEB (TANK) 2.2 14:32:34 10° WSW 14:35:31 45° NNW 14:37:46 10° NE
YAOGAN 6 3.5 14:32:36 10° NNE 14:35:52 46° ESE 14:39:13 10° S
SL-8 R/B 3.7 14:31:37 10° W 14:36:31 89° N 14:41:24 10° E
Cosmos 494 Rocket 4.1 14:33:57 10° SSW 14:39:06 57° WNW 14:44:10 10° N
Cosmos 2233 Rocket 4.2 14:33:31 10° SSW 14:39:46 58° W 14:45:55 10° N
ALOS 2.8 14:36:09 12° NNW 14:40:11 41° W 14:44:40 10° SSW
Envisat 3.1 14:35:51 10° NNE 14:40:58 87° ESE 14:46:10 10° SSW
USA 306 3.0 14:39:50 10° WSW 14:43:22 65° SSE 14:47:10 10° ENE
MOZ.5/SAFIR/RUBIN 5/SL-8 3.8 14:39:08 10° SSE 14:43:52 86° WSW 14:48:31 10° NNW
USA 276 3.4 14:44:05 14° NNW 14:46:07 27° NNE 14:48:48 10° E
Cosmos 1455 Rocket 3.4 14:46:16 12° NNW 14:50:08 53° WSW 14:54:28 10° S
USA 308 2.7 14:49:41 10° W 14:51:57 26° NW 14:54:31 10° NNE
ISS -3.8 14:48:41 10° WSW 14:52:07 82° NNW 14:55:32 10° ENE
NOAA 11 4.3 14:48:00 10° NNE 14:53:34 88° ESE 14:59:11 10° SSW
ATLAS 5 CENTAUR R/B 2.6 14:49:22 10° SW 14:54:29 34° WNW 14:58:41 10° N
SL-16 R/B 3.9 14:52:15 10° SSE 14:57:58 36° E 15:03:36 10° NNE
Cosmos 2285 Rocket 4.1 14:53:17 10° SSW 14:59:43 86° ESE 15:06:03 10° NNE
SL-16 R/B 3.5 14:55:13 10° SSW 15:00:46 47° SE 15:06:16 10° NE
Cosmos 1758 Rocket 4.2 14:57:08 10° S 15:01:39 60° ESE 15:06:02 10° NNE
Cosmos 1484 Rocket 4.1 14:58:12 10° NE 15:01:40 41° ESE 15:05:11 10° S
Okean 1-7 Rocket 4.0 14:58:37 10° S 15:03:14 71° E 15:07:43 10° NNE
Cosmos 1464 Rocket 4.2 14:59:43 10° S 15:05:59 79° E 15:12:09 10° NNE
COBE Rocket 4.2 15:02:52 10° N 15:07:21 45° W 15:12:00 10° SSW
CZ-2C R/B 2.8 15:08:39 10° N 15:13:33 47° W 15:18:22 10° SSW
USA 215 4.2 15:08:32 10° N 15:13:34 23° NW 15:18:39 10° WSW
Cosmos 2297 Rocket 2.4 15:12:55 10° NW 15:18:36 71° WSW 15:24:20 10° SSE
Cosmos 2150 Rocket 4.3 15:14:35 10° NNW 15:20:03 78° ENE 15:25:30 10° SSE
Cosmos 1980 4.1 15:15:48 10° SW 15:21:11 44° WNW 15:26:32 10° N
